Location: Newark
(48.4472°N, 1.4892°E)
Time: 09:24:09
(UTC+00:00)

Transit 4A - Pass Details

Date: 22 January 2021
Orbit: 866 x 978 km, 66.8° (Epoch: 26 February)

Event Time Altitude Azimuth Distance (km) Brightness Sun altitude
Rises 19:06:14 0° 199° (SSW) 3,659 11.3 -24.4°
Reaches altitude 10° 19:08:49 10° 195° (SSW) 2,720 10.5 -24.8°
Maximum altitude 19:15:03 59° 118° (ESE) 1,120 8.0 -25.8°
Enters shadow 19:15:05 59° 117° (ESE) 1,120 8.0 -25.8°
